Regional Weather Roundup
Issued by NWS Northern Indiana

Home | Current Version | Previous Version | Graphics & Text | Print | Product List | Glossary On
Versions: 1 2 3 4 5 6 7 8 9 10 11 12 13 14 15 16 17 18 19 20 21 22 23 24 25 26 27 28 29 30 31 32 33 34 35 36 37 38 39 40 41 42 43 44 45 46 47 48 49 50
000
ASUS43 KIWX 092210
RWRIWX

KIWX WEATHER ROUNDUP
NATIONAL WEATHER SERVICE NORTHERN INDIANA
500 PM EST FRI DEC 09 2016

NOTE: "FAIR" INDICATES FEW OR NO CLOUDS BELOW 12,000 FEET WITH NO
SIGNIFICANT WEATHER AND/OR OBSTRUCTIONS TO VISIBILITY.

* THESE STATIONS ARE NOT UNDER NWS QUALITY CONTROL. THEY ALSO MAY NOT
  REPORT WEATHER SUCH AS PRECIPITATION OR FOG.

INZ001>027-092300-
NORTHERN INDIANA

CITY           SKY/WX    TMP DP  RH WIND       PRES   REMARKS
GARY*          MOCLDY    27  14  59 W12       30.52R WCI  16
VALPARAISO     CLOUDY    24  13  62 W9        30.50R WCI  14
MICHIGAN CITY* CLOUDY    27  18  69 SW7       30.50R WCI  19
LAPORTE*       CLOUDY    24  16  70 W8        30.49R WCI  15
KNOX*          MOCLDY    27  -4  26 W10       30.50R WCI  17
SOUTH BEND     FLURRIES  23  18  81 W13       30.48R WCI  11
ELKHART*       LGT SNOW  25  19  80 W10       30.46R WCI  15
GOSHEN         FLURRIES  25  17  72 W13       30.46R WCI  14
MONTICELLO*    CLOUDY    25  11  55 W7        30.51R WCI  17
LOGANSPORT*    FLURRIES  27  19  74 NW5       30.51S WCI  21
ROCHESTER*     CLOUDY    28  18  64 W7        30.50R WCI  21
WARSAW*        CLOUDY    27  12  54 W12       30.47R WCI  16
ANGOLA*        CLOUDY    27  19  74 W9        30.42R WCI  17
FORT WAYNE     FLURRIES  28  16  60 W13       30.46S WCI  17
HUNTINGTON*    CLOUDY    26  14  59 W10       30.48R WCI  16
PERU/GRISSOM   FLURRIES  25  18  73 W9        30.48S WCI  16
MARION*        CLOUDY    25  18  74 W9        30.49S WCI  16

$$
INZ028>050-092300-
CENTRAL INDIANA

CITY           SKY/WX    TMP DP  RH WIND       PRES   REMARKS
LAFAYETTE      CLOUDY    25  15  66 W10       30.52S WCI  15
KOKOMO*        FLURRIES  25  18  74 W10       30.50R WCI  15
MUNCIE*        CLOUDY    26  17  68 W7        30.49S WCI  18
INDIANAPOLIS   FLURRIES  25  15  66 W7        30.51S WCI  17

$$
MIZ043>046-050>051-056>058-064>065-071>073-077>080-092300-
SOUTHWEST LOWER MICHIGAN

CITY           SKY/WX    TMP DP  RH WIND       PRES   REMARKS
BATTLE CREEK   LGT SNOW  24  20  84 W13       30.42R FOG     WCI  12
BENTON HARBOR  CLOUDY    28  15  58 W13       30.46S WCI  17
COLDWATER*     CLOUDY    25  20  81 W10       30.42R WCI  15
HILLSDALE*     CLOUDY    25  21  86 W10       30.38S WCI  15
HOLLAND        FLURRIES  27  17  66 W12       30.43S WCI  17
GRAND RAPIDS   LGT SNOW  24  20  84 W10       30.42R FOG     WCI  14
KALAMAZOO      LGT SNOW  25  17  72 W10       30.43R WCI  15
STURGIS*       CLOUDY    25  19  77 W9        30.42S WCI  16
THREE RIVERS*  FLURRIES  26  17  70 W14       30.44S WCI  14

$$
OHZ001>008-015>018-024>025-092300-
NORTHWEST OHIO

CITY           SKY/WX    TMP DP  RH WIND       PRES   REMARKS
WAUSEON*       CLOUDY    28  21  74 W14       30.42R WCI  17
DEFIANCE       CLOUDY    30  17  58 W7        30.44S WCI  23
FINDLAY        CLOUDY    28  19  69 W13       30.43S WCI  17
TOLEDO EXPRESS FLURRIES  29  22  75 W12       30.42R WCI  19
TOLEDO METCALF LGT SNOW  30  24  78 W15       30.43R WCI  19
LIMA           CLOUDY    25  20  81 SW12      30.45S WCI  14

$$
AND FOR LAKE MICHIGAN COASTAL AND OPEN LAKE BUOY OBSERVATIONS

STATION/POSITION TEMP    WIND        PRES    VSBY  WAVE
                 AIR SEA DIR/SP/G                  HT/PER
                 (F)     (DEG/KT/KT) (MB)    (MI)  (FT/S)
CALUMET HARBOR    25     230/  6/  9 1032.3R
BURNS HARBOR      26     260/ 10/ 16 1033.2R
SAINT JOSEPH      29     280/ 14/ 20 1032.2S

$$
&&




USA.gov is the U.S. government's official web portal to all federal, state and local government web resources and services.